Вернуться в каталог

COSMOS 1275 DEB

АктивенPO
NORAD 12666·DEBRIS·🇷🇺 Russia

Запущен Jun 4, 1981 с Plesetsk Cosmodrome

Loading…

Ближайшие Пролёты (ближайшие 24 часа)

TLE

СвежийSource: Space-Track

Эпоха: Sep 14, 2026, 11:00 UTC

1 12666U 81053W   26257.45851686  .00000300  00000-0  29666-3 0  9998
2 12666  82.8744 154.0072 0069753   5.4769 169.0246 13.74483415255343

Отслеживайте COSMOS 1275 DEB в реальном времени с AllMySat

Download on the App Store